Kezdőlap
METAR-TAF:

METAR-TAF

Repülőterek :

Whiteside County Airport (Jos. H. Bittorf Field)

Sterling-Rock Falls, Illinois, Amerikai Egyesült Államok

földrajzi szélesség: 41-45N, földrajzi hosszúság: 089-40W, magasság: 197 m

Jelenlegi meteorológiai megfigyelések

A jelentés 33 perccel ezelõtt készült, 22:56 UTC
Különbözõ irányokból fújó szél 4 kt
Hőmérséklet 9°C
Páratartalom 49%
Légköri nyomás 1018 hPa
Látótávolság: 16.1 km
Derült ég

METAR: KSQI 222256Z VRB04KT 10SM CLR 09/M01 A3006 RMK AO2 SLP047 T00891006

Idő: 17:29 (23:29 UTC)


TAF: hiányzik

Meteorológiai megfigyelések és előrejelzések több, mint 4000 repülőtéren (METAR és TAF jelentéseket).

A térképen piros és sárga pontok jelzik az elérhető meteorológiai állomásokat.

Mozgassa az egeret a pont fölött, hogy megjelenjen az állomás neve.

Azután kattintson az időjárási megfigyelések és előrejelzések megtekintéséhez.

A térkép megváltoztatása: kattintson a fekete keresztel jelölt zöld gombra ráközelítéshez, a vonallal jelölt zöld gombra távolításhoz, vagy a zöld nyilakra a szomszédos térképek eléréséhez.


METAR-TAF: